Track OPS 6073 (DMSP 4A F2) now! 10-day predictions OPS 6073 (DMSP 4A F2) is classified as:
1 2669U 67010A 19048.78565180 -.00000010 +00000-0 +14764-4 0 9997 2 2669 098.9782 299.4708 0049286 200.3470 159.5747 14.27005447702519